Millville, NJ

8:46 AM EST on December 06, 2019 (GMT -0500)
Millville Municipal

Weather History for KMIV - October, 2019

Change the Weather History Date:

Thursday, October 3, 2019

  Actual Average Record
Temperature  
Mean Temperature 70 °F -  
Max Temperature 77 °F 70 °F 87 °F (2002)
Min Temperature 64 °F 50 °F 30 °F (2003)
Cooling Degree Days 6    
Growing Degree Days 20 (Base 50)    
Moisture  
Dew Point 64 °F    
Average Humidity 90    
Maximum Humidity 97    
Minimum Humidity 71    
Precipitation  
Precipitation 0.05 in - - ()
Sea Level Pressure  
Sea Level Pressure 30.00 in    
Wind  
Wind Speed 10 mph (East)    
Max Wind Speed 15 mph    
Max Gust Speed -    
Visibility 7 miles    
Events Rain    
Averages and records for this station are not official NWS values.
T = Trace of Precipitation, MM = Missing Value Source: NWS Daily Summary

Daily Weather History Graph

Daily Weather History Graph

Search for Another Location

Airport or City:

Astronomy

Oct. 03, 2019 Rise Set
Actual Time 6:58 AM EDT 6:40 PM EDT
Civil Twilight 6:31 AM EDT 7:06 PM EDT
Nautical Twilight 6:00 AM EDT 7:37 PM EDT
Astronomical Twilight 5:28 AM EDT 8:09 PM EDT
Moon 12:25 PM EDT (10/3) 10:18 PM EDT (10/3)
Length of Visible Light 12h 35m
Length of Day
11h 41m
Waxing Crescent, 29% of the Moon is Illuminated
Oct 3
Waxing Crescent
Oct 5
First Quarter
Oct 13
Full
Oct 21
Last Quarter
Oct 27
New

Hourly Weather History & Observations

Time (EDT) Temp. Dew Point Humidity Pressure Visibility Wind Dir Wind Speed Gust Speed Precip Events Conditions
12:54 AM 77.0 °F 66.9 °F 71% 29.90 in 10.0 mi NE 11.5 mph - N/A   Overcast
1:54 AM 75.9 °F 66.9 °F 74% 29.92 in 10.0 mi ENE 12.7 mph - N/A   Overcast
2:15 AM 75.0 °F 66.9 °F 76% 29.92 in 10.0 mi ENE 8.1 mph - N/A   Overcast
2:54 AM 73.0 °F 66.0 °F 79% 29.94 in 10.0 mi NE 11.5 mph - N/A   Overcast
3:54 AM 69.1 °F 66.0 °F 90% 29.96 in 9.0 mi ENE 12.7 mph - 0.01 in   Overcast
4:39 AM 68.0 °F 64.9 °F 90% 29.96 in 10.0 mi East 15.0 mph - N/A   Overcast
4:54 AM 68.0 °F 64.0 °F 87% 29.96 in 10.0 mi East 11.5 mph - N/A   Overcast
5:18 AM 66.9 °F 64.0 °F 90% 29.97 in 10.0 mi East 11.5 mph - N/A   Overcast
5:54 AM 66.9 °F 64.0 °F 90% 29.99 in 10.0 mi East 9.2 mph - N/A   Overcast
6:54 AM 66.9 °F 64.0 °F 90% 30.02 in 10.0 mi East 13.8 mph - N/A   Overcast
7:54 AM 66.0 °F 63.0 °F 90% 30.04 in 7.0 mi East 13.8 mph - 0.00 in   Overcast
8:26 AM 64.9 °F 63.0 °F 93% 30.05 in 2.0 mi East 12.7 mph - 0.02 in Rain Light Rain
8:39 AM 64.9 °F 63.0 °F 93% 30.04 in 4.0 mi ENE 11.5 mph - 0.03 in Rain Light Rain
8:54 AM 64.9 °F 63.0 °F 93% 30.05 in 5.0 mi ENE 11.5 mph - 0.03 in Rain Light Rain
9:54 AM 64.9 °F 62.1 °F 90% 30.05 in 10.0 mi East 13.8 mph - 0.01 in   Overcast
10:16 AM 64.9 °F 62.1 °F 90% 30.06 in 10.0 mi East 11.5 mph - N/A   Overcast
10:27 AM 64.9 °F 62.1 °F 90% 30.06 in 10.0 mi ENE 11.5 mph - N/A   Overcast
10:54 AM 64.9 °F 62.1 °F 90% 30.06 in 10.0 mi East 9.2 mph - N/A   Overcast
11:54 AM 64.9 °F 62.1 °F 90% 30.06 in 4.0 mi ENE 9.2 mph - N/A   Overcast
12:29 PM 64.9 °F 63.0 °F 93% 30.06 in 2.5 mi ENE 11.5 mph - N/A   Overcast
12:54 PM 64.9 °F 63.0 °F 93% 30.04 in 2.5 mi East 9.2 mph - N/A   Overcast
1:02 PM 64.9 °F 63.0 °F 93% 30.04 in 3.0 mi East 8.1 mph - N/A   Overcast
1:54 PM 66.0 °F 63.0 °F 90% 30.04 in 6.0 mi East 9.2 mph - N/A   Overcast
2:54 PM 66.0 °F 63.0 °F 90% 30.02 in 10.0 mi East 9.2 mph - N/A   Overcast
3:54 PM 66.0 °F 63.0 °F 90% 30.02 in 7.0 mi East 9.2 mph - N/A   Overcast
4:54 PM 66.0 °F 63.0 °F 90% 30.00 in 10.0 mi ESE 8.1 mph - N/A   Overcast
5:54 PM 66.0 °F 63.0 °F 90% 29.99 in 10.0 mi ESE 8.1 mph - N/A   Overcast
6:54 PM 64.9 °F 64.0 °F 97% 30.00 in 4.0 mi East 6.9 mph - N/A   Overcast
7:14 PM 64.9 °F 64.0 °F 97% 29.99 in 2.0 mi East 6.9 mph - N/A   Overcast
7:24 PM 64.9 °F 64.0 °F 97% 29.99 in 3.0 mi ESE 4.6 mph - N/A   Overcast
7:54 PM 66.0 °F 64.0 °F 93% 29.99 in 4.0 mi ESE 6.9 mph - N/A   Overcast
8:34 PM 66.0 °F 64.9 °F 96% 29.98 in 8.0 mi SE 5.8 mph - N/A   Overcast
8:47 PM 66.0 °F 64.9 °F 96% 29.98 in 10.0 mi SE 5.8 mph - N/A   Overcast
8:54 PM 66.9 °F 64.9 °F 93% 29.98 in 10.0 mi ESE 3.5 mph - N/A   Overcast
9:54 PM 66.9 °F 66.0 °F 97% 29.95 in 6.0 mi SE 5.8 mph - N/A   Overcast
10:38 PM 68.0 °F 66.0 °F 93% 29.94 in 6.0 mi Calm Calm - N/A   Overcast
10:54 PM 68.0 °F 66.0 °F 93% 29.94 in 6.0 mi Calm Calm - N/A   Overcast
11:54 PM 69.1 °F 66.9 °F 93% 29.93 in 7.0 mi Calm Calm - N/A   Overcast